Location: Unspecified
(0.0000°N, 0.0000°E)
Time: 12:30:55
(UTC+00:00)

Vela 4B - Visible Passes

Search period start: 20 July 2025 00:00
Search period end: 30 July 2025 00:00
Orbit: 56995 x 167350 km, 34.4° (Epoch: 23 June)

Date Brightness Start Highest point End Pass type
(mag) Time Alt. Az. Time Alt. Az. Time Alt. Az.
20 Jul ? 22:04:38 10° ESE 04:02:20 80° S 10:04:15 10° W visible
22 Jul ? 12:10:33 10° E 18:35:28 70° S 00:57:43 10° WSW visible
23 Jul ? 17:07:40 10° SE 22:47:29 54° S 04:24:48 10° SW visible
24 Jul ? 19:51:08 10° ESE 01:33:26 62° S 07:08:51 10° WSW visible
25 Jul ? 22:49:32 10° E 05:01:33 84° NNE 12:29:07 10° WNW visible
27 Jul ? 13:52:22 10° ESE 19:48:31 60° S 01:49:15 10° WSW visible
28 Jul ? 17:40:56 10° SE 23:19:35 55° S 04:53:46 10° WSW daylight
